contact:dominique.lefevre@mio.osupytheas.fr, maurice.libes@osupytheas.fr, didier.mallarino@osupytheas.fr
Project:EMSO http://www.emso-fr.org/EMSO-France
Depth: 2436.0 m
Title:EMSO Ligure Ouest : Data MII capteur CSTAR
DateTime,Latitude,Longitude,Instrument_Serial,Reference_Counts,Signal_Counts,Corrected_Signal_raw_counts,Calculated_Beam_c_inverse_meters,Internal_thermistor_counts
DateTime,Latitude,Longitude,Instrument_Serial,Reference_Counts,Signal_Counts,Corrected_Signal_raw_counts,Calculated_Beam_c_inverse_meters,Internal_thermistor_counts
2022-05-01T00:01:26,42.805,6.029,CST-1368DR,4773,5548,12397,0.923,551
2022-05-01T00:04:28,42.805,6.029,CST-1368DR,4773,5552,12405,0.921,551
2022-05-01T00:07:29,42.805,6.029,CST-1368DR,4773,5551,12402,0.922,551
2022-05-01T00:10:31,42.805,6.029,CST-1368DR,4773,5549,12398,0.923,550
2022-05-01T00:13:33,42.805,6.029,CST-1368DR,4773,5547,12394,0.924,551
2022-05-01T00:16:34,42.805,6.029,CST-1368DR,4773,5552,12405,0.921,551
2022-05-01T00:19:36,42.805,6.029,CST-1368DR,4773,5547,12394,0.924,551
2022-05-01T00:22:37,42.805,6.029,CST-1368DR,4773,5550,12400,0.922,551
2022-05-01T00:25:39,42.805,6.029,CST-1368DR,4773,5545,12390,0.926,551
2022-05-01T00:28:40,42.805,6.029,CST-1368DR,4773,5550,12400,0.922,551
2022-05-01T00:31:42,42.805,6.029,CST-1368DR,4773,5549,12399,0.923,551
2022-05-01T00:34:44,42.805,6.029,CST-1368DR,4773,5551,12403,0.921,551
2022-05-01T00:37:45,42.805,6.029,CST-1368DR,4773,5550,12401,0.922,551
2022-05-01T00:40:47,42.805,6.029,CST-1368DR,4773,5550,12400,0.922,551
2022-05-01T00:43:48,42.805,6.029,CST-1368DR,4773,5561,12424,0.915,551
2022-05-01T00:46:50,42.805,6.029,CST-1368DR,4773,5555,12411,0.919,551
2022-05-01T00:49:52,42.805,6.029,CST-1368DR,4773,5550,12401,0.922,551
2022-05-01T00:52:53,42.805,6.029,CST-1368DR,4773,5550,12400,0.922,551
2022-05-01T00:55:55,42.805,6.029,CST-1368DR,4773,5550,12401,0.922,551
2022-05-01T00:58:56,42.805,6.029,CST-1368DR,4773,5548,12397,0.923,551
2022-05-01T01:01:58,42.805,6.029,CST-1368DR,4773,5549,12399,0.923,551
2022-05-01T01:04:59,42.805,6.029,CST-1368DR,4773,5550,12401,0.922,551
2022-05-01T01:08:01,42.805,6.029,CST-1368DR,4773,5551,12403,0.921,551
2022-05-01T01:11:03,42.805,6.029,CST-1368DR,4773,5552,12405,0.921,551
2022-05-01T01:14:04,42.805,6.029,CST-1368DR,4773,5552,12405,0.921,551
2022-05-01T01:17:06,42.805,6.029,CST-1368DR,4773,5545,12390,0.926,551
2022-05-01T01:20:07,42.805,6.029,CST-1368DR,4773,5547,12394,0.924,551
2022-05-01T01:23:09,42.805,6.029,CST-1368DR,4773,5549,12398,0.923,551
2022-05-01T01:26:10,42.805,6.029,CST-1368DR,4773,5550,12400,0.922,551
2022-05-01T01:29:12,42.805,6.029,CST-1368DR,4773,5547,12395,0.924,551
2022-05-01T01:32:14,42.805,6.029,CST-1368DR,4773,5554,12409,0.919,551
2022-05-01T01:35:15,42.805,6.029,CST-1368DR,4773,5554,12410,0.919,551
2022-05-01T01:38:17,42.805,6.029,CST-1368DR,4773,5553,12406,0.920,551
2022-05-01T01:41:18,42.805,6.029,CST-1368DR,4773,5552,12405,0.921,551
2022-05-01T01:44:20,42.805,6.029,CST-1368DR,4773,5550,12400,0.922,551
2022-05-01T01:47:22,42.805,6.029,CST-1368DR,4773,5552,12404,0.921,551
2022-05-01T01:50:23,42.805,6.029,CST-1368DR,4773,5557,12416,0.917,551
2022-05-01T01:53:25,42.805,6.029,CST-1368DR,4773,5552,12404,0.921,551
2022-05-01T01:56:26,42.805,6.029,CST-1368DR,4773,5550,12401,0.922,551
2022-05-01T01:59:28,42.805,6.029,CST-1368DR,4773,5551,12402,0.922,551
2022-05-01T02:02:29,42.805,6.029,CST-1368DR,4773,5551,12403,0.921,551
2022-05-01T02:05:31,42.805,6.029,CST-1368DR,4773,5548,12396,0.924,551
2022-05-01T02:08:33,42.805,6.029,CST-1368DR,4773,5547,12394,0.924,551
2022-05-01T02:11:34,42.805,6.029,CST-1368DR,4773,5550,12400,0.922,551
2022-05-01T02:14:36,42.805,6.029,CST-1368DR,4773,5549,12398,0.923,551
2022-05-01T02:17:37,42.805,6.029,CST-1368DR,4773,5547,12394,0.924,551
2022-05-01T02:20:39,42.805,6.029,CST-1368DR,4773,5547,12394,0.924,551
2022-05-01T02:23:41,42.805,6.029,CST-1368DR,4773,5550,12401,0.922,551
2022-05-01T02:26:42,42.805,6.029,CST-1368DR,4773,5548,12397,0.923,551
2022-05-01T02:29:44,42.805,6.029,CST-1368DR,4773,5550,12401,0.922,551
2022-05-01T02:32:45,42.805,6.029,CST-1368DR,4773,5551,12402,0.922,551
2022-05-01T02:35:47,42.805,6.029,CST-1368DR,4773,5550,12401,0.922,551
2022-05-01T02:38:48,42.805,6.029,CST-1368DR,4773,5549,12397,0.923,551
2022-05-01T02:41:50,42.805,6.029,CST-1368DR,4773,5547,12394,0.924,551
2022-05-01T02:44:52,42.805,6.029,CST-1368DR,4773,5546,12391,0.925,551
2022-05-01T02:47:53,42.805,6.029,CST-1368DR,4773,5554,12410,0.919,551
2022-05-01T02:50:55,42.805,6.029,CST-1368DR,4773,5550,12401,0.922,551
2022-05-01T02:53:56,42.805,6.029,CST-1368DR,4773,5550,12400,0.922,551
2022-05-01T02:56:58,42.805,6.029,CST-1368DR,4773,5547,12394,0.924,551
2022-05-01T02:59:59,42.805,6.029,CST-1368DR,4773,5547,12394,0.924,551
2022-05-01T03:03:01,42.805,6.029,CST-1368DR,4773,5546,12392,0.925,551
2022-05-01T03:06:03,42.805,6.029,CST-1368DR,4773,5547,12394,0.924,551
2022-05-01T03:09:04,42.805,6.029,CST-1368DR,4773,5550,12401,0.922,551
2022-05-01T03:12:06,42.805,6.029,CST-1368DR,4773,5552,12406,0.920,551
2022-05-01T03:15:07,42.805,6.029,CST-1368DR,4773,5549,12399,0.923,551
2022-05-01T03:18:09,42.805,6.029,CST-1368DR,4773,5550,12401,0.922,551
2022-05-01T03:21:11,42.805,6.029,CST-1368DR,4773,5550,12401,0.922,551
2022-05-01T03:24:12,42.805,6.029,CST-1368DR,4773,5551,12402,0.922,551
2022-05-01T03:27:14,42.805,6.029,CST-1368DR,4773,5551,12403,0.921,551
2022-05-01T03:30:15,42.805,6.029,CST-1368DR,4773,5550,12401,0.922,551
2022-05-01T03:33:17,42.805,6.029,CST-1368DR,4773,5550,12400,0.922,551
2022-05-01T03:36:18,42.805,6.029,CST-1368DR,4773,5548,12395,0.924,551
2022-05-01T03:39:20,42.805,6.029,CST-1368DR,4773,5547,12395,0.924,551
2022-05-01T03:42:22,42.805,6.029,CST-1368DR,4773,5556,12415,0.918,551
2022-05-01T03:45:23,42.805,6.029,CST-1368DR,4773,5552,12405,0.921,551
2022-05-01T03:48:25,42.805,6.029,CST-1368DR,4773,5552,12404,0.921,551
2022-05-01T03:51:26,42.805,6.029,CST-1368DR,4773,5553,12408,0.920,551
2022-05-01T03:54:28,42.805,6.029,CST-1368DR,4773,5552,12405,0.921,551
2022-05-01T03:57:29,42.805,6.029,CST-1368DR,4773,5551,12403,0.921,551
2022-05-01T04:00:31,42.805,6.029,CST-1368DR,4773,5550,12401,0.922,551
2022-05-01T04:03:33,42.805,6.029,CST-1368DR,4773,5551,12402,0.922,551
2022-05-01T04:06:34,42.805,6.029,CST-1368DR,4773,5550,12401,0.922,551
2022-05-01T04:09:36,42.805,6.029,CST-1368DR,4773,5550,12400,0.922,551
2022-05-01T04:12:37,42.805,6.029,CST-1368DR,4773,5548,12396,0.924,551
2022-05-01T04:15:39,42.805,6.029,CST-1368DR,4773,5551,12403,0.921,551
2022-05-01T04:18:41,42.805,6.029,CST-1368DR,4773,5547,12394,0.924,551
2022-05-01T04:21:42,42.805,6.029,CST-1368DR,4773,5548,12396,0.924,551
2022-05-01T04:24:44,42.805,6.029,CST-1368DR,4773,5548,12396,0.924,551
2022-05-01T04:27:45,42.805,6.029,CST-1368DR,4773,5545,12390,0.926,551
2022-05-01T04:30:47,42.805,6.029,CST-1368DR,4773,5549,12399,0.923,551
2022-05-01T04:33:48,42.805,6.029,CST-1368DR,4773,5551,12403,0.921,551
2022-05-01T04:36:50,42.805,6.029,CST-1368DR,4773,5549,12398,0.923,551
2022-05-01T04:39:52,42.805,6.029,CST-1368DR,4773,5549,12399,0.923,551
2022-05-01T04:42:53,42.805,6.029,CST-1368DR,4773,5547,12394,0.924,551
2022-05-01T04:45:55,42.805,6.029,CST-1368DR,4773,5549,12399,0.923,551
2022-05-01T04:48:56,42.805,6.029,CST-1368DR,4773,5547,12394,0.924,551
2022-05-01T04:51:58,42.805,6.029,CST-1368DR,4773,5550,12401,0.922,551
2022-05-01T04:54:59,42.805,6.029,CST-1368DR,4773,5550,12401,0.922,551
2022-05-01T04:58:01,42.805,6.029,CST-1368DR,4773,5551,12403,0.921,551
2022-05-01T05:01:03,42.805,6.029,CST-1368DR,4773,5547,12394,0.924,551
2022-05-01T05:04:04,42.805,6.029,CST-1368DR,4773,5557,12415,0.918,551
2022-05-01T05:07:06,42.805,6.029,CST-1368DR,4773,5552,12406,0.920,551
2022-05-01T05:10:07,42.805,6.029,CST-1368DR,4773,5550,12401,0.922,551
2022-05-01T05:13:09,42.805,6.029,CST-1368DR,4773,5550,12400,0.922,551
2022-05-01T05:16:11,42.805,6.029,CST-1368DR,4773,5552,12404,0.921,551
2022-05-01T05:19:12,42.805,6.029,CST-1368DR,4773,5551,12402,0.922,551
2022-05-01T05:22:14,42.805,6.029,CST-1368DR,4773,5551,12402,0.922,551
2022-05-01T05:25:15,42.805,6.029,CST-1368DR,4773,5547,12395,0.924,551
2022-05-01T05:28:17,42.805,6.029,CST-1368DR,4773,5547,12393,0.925,551
2022-05-01T05:31:18,42.805,6.029,CST-1368DR,4773,5549,12399,0.923,551
2022-05-01T05:34:20,42.805,6.029,CST-1368DR,4773,5550,12400,0.922,551
2022-05-01T05:37:22,42.805,6.029,CST-1368DR,4773,5547,12395,0.924,551
2022-05-01T05:40:23,42.805,6.029,CST-1368DR,4773,5549,12397,0.923,551
2022-05-01T05:43:25,42.805,6.029,CST-1368DR,4773,5549,12398,0.923,551
2022-05-01T05:46:26,42.805,6.029,CST-1368DR,4773,5548,12395,0.924,551
2022-05-01T05:49:28,42.805,6.029,CST-1368DR,4773,5546,12391,0.925,551
2022-05-01T05:52:29,42.805,6.029,CST-1368DR,4773,5546,12391,0.925,551
2022-05-01T05:55:31,42.805,6.029,CST-1368DR,4773,5547,12394,0.924,551
2022-05-01T05:58:33,42.805,6.029,CST-1368DR,4773,5544,12388,0.926,551
2022-05-01T06:01:34,42.805,6.029,CST-1368DR,4773,5544,12386,0.927,551
2022-05-01T06:04:36,42.805,6.029,CST-1368DR,4773,5546,12392,0.925,551
2022-05-01T06:07:37,42.805,6.029,CST-1368DR,4773,5548,12395,0.924,551
2022-05-01T06:10:39,42.805,6.029,CST-1368DR,4773,5546,12392,0.925,551
2022-05-01T06:13:41,42.805,6.029,CST-1368DR,4773,5546,12391,0.925,551
2022-05-01T06:16:42,42.805,6.029,CST-1368DR,4773,5547,12393,0.925,551
2022-05-01T06:19:44,42.805,6.029,CST-1368DR,4773,5549,12397,0.923,551
2022-05-01T06:22:45,42.805,6.029,CST-1368DR,4773,5547,12394,0.924,551
2022-05-01T06:25:47,42.805,6.029,CST-1368DR,4773,5556,12414,0.918,551
2022-05-01T06:28:48,42.805,6.029,CST-1368DR,4773,5547,12394,0.924,551
2022-05-01T06:31:50,42.805,6.029,CST-1368DR,4773,5550,12401,0.922,551
2022-05-01T06:34:52,42.805,6.029,CST-1368DR,4773,5551,12402,0.922,551
2022-05-01T06:37:53,42.805,6.029,CST-1368DR,4773,5549,12397,0.923,551
2022-05-01T06:40:55,42.805,6.029,CST-1368DR,4773,5549,12399,0.923,551
2022-05-01T06:43:56,42.805,6.029,CST-1368DR,4773,5548,12397,0.923,551
2022-05-01T06:46:58,42.805,6.029,CST-1368DR,4773,5548,12395,0.924,551
2022-05-01T06:49:59,42.805,6.029,CST-1368DR,4773,5548,12397,0.923,551
2022-05-01T06:53:01,42.805,6.029,CST-1368DR,4773,5546,12392,0.925,551
2022-05-01T06:56:03,42.805,6.029,CST-1368DR,4773,5545,12389,0.926,551
2022-05-01T06:59:04,42.805,6.029,CST-1368DR,4772,5480,12246,0.972,551
2022-05-01T07:02:06,42.805,6.029,CST-1368DR,4772,5475,12236,0.976,551
2022-05-01T07:05:07,42.805,6.029,CST-1368DR,4772,5482,12250,0.971,551
2022-05-01T07:08:09,42.805,6.029,CST-1368DR,4772,5480,12246,0.972,551
2022-05-01T07:11:11,42.805,6.029,CST-1368DR,4772,5480,12247,0.972,551
2022-05-01T07:14:12,42.805,6.029,CST-1368DR,4772,5480,12246,0.972,551
2022-05-01T07:17:14,42.805,6.029,CST-1368DR,4772,5481,12249,0.971,551
2022-05-01T07:20:15,42.805,6.029,CST-1368DR,4772,5482,12252,0.970,551
2022-05-01T07:23:17,42.805,6.029,CST-1368DR,4772,5482,12252,0.970,551
2022-05-01T07:26:18,42.805,6.029,CST-1368DR,4772,5481,12250,0.971,551
2022-05-01T07:29:20,42.805,6.029,CST-1368DR,4772,5481,12249,0.971,551
2022-05-01T07:32:22,42.805,6.029,CST-1368DR,4772,5483,12254,0.970,551
2022-05-01T07:35:23,42.805,6.029,CST-1368DR,4772,5492,12273,0.964,551
2022-05-01T07:38:25,42.805,6.029,CST-1368DR,4772,5485,12257,0.969,551
2022-05-01T07:41:26,42.805,6.029,CST-1368DR,4772,5482,12250,0.971,551
2022-05-01T07:44:28,42.805,6.029,CST-1368DR,4772,5486,12260,0.968,551
2022-05-01T07:47:29,42.805,6.029,CST-1368DR,4772,5486,12259,0.968,551
2022-05-01T07:50:31,42.805,6.029,CST-1368DR,4772,5478,12242,0.974,551
2022-05-01T07:53:33,42.805,6.029,CST-1368DR,4772,5486,12260,0.968,551
2022-05-01T07:56:34,42.805,6.029,CST-1368DR,4772,5480,12247,0.972,551
2022-05-01T07:59:36,42.805,6.029,CST-1368DR,4772,5481,12249,0.971,551
2022-05-01T08:02:37,42.805,6.029,CST-1368DR,4772,5485,12259,0.968,551
2022-05-01T08:05:39,42.805,6.029,CST-1368DR,4772,5484,12256,0.969,551
2022-05-01T08:08:41,42.805,6.029,CST-1368DR,4772,5488,12265,0.966,551
2022-05-01T08:11:42,42.805,6.029,CST-1368DR,4772,5487,12263,0.967,551
2022-05-01T08:14:44,42.805,6.029,CST-1368DR,4772,5485,12259,0.968,551
2022-05-01T08:17:45,42.805,6.029,CST-1368DR,4772,5484,12256,0.969,551
2022-05-01T08:20:47,42.805,6.029,CST-1368DR,4772,5486,12259,0.968,551
2022-05-01T08:23:48,42.805,6.029,CST-1368DR,4772,5483,12253,0.970,551
2022-05-01T08:26:50,42.805,6.029,CST-1368DR,4772,5481,12249,0.971,551
2022-05-01T08:29:52,42.805,6.029,CST-1368DR,4772,5484,12255,0.969,551
2022-05-01T08:32:53,42.805,6.029,CST-1368DR,4772,5481,12249,0.971,551
2022-05-01T08:35:55,42.805,6.029,CST-1368DR,4772,5485,12258,0.968,551
2022-05-01T08:38:56,42.805,6.029,CST-1368DR,4772,5482,12250,0.971,551
2022-05-01T08:41:58,42.805,6.029,CST-1368DR,4772,5482,12250,0.971,551
2022-05-01T08:44:59,42.805,6.029,CST-1368DR,4772,5491,12271,0.964,551
2022-05-01T08:48:01,42.805,6.029,CST-1368DR,4772,5485,12259,0.968,551
2022-05-01T08:51:03,42.805,6.029,CST-1368DR,4772,5485,12258,0.968,551
2022-05-01T08:54:04,42.805,6.029,CST-1368DR,4772,5486,12260,0.968,551
2022-05-01T08:57:06,42.805,6.029,CST-1368DR,4772,5484,12255,0.969,551
2022-05-01T09:00:07,42.805,6.029,CST-1368DR,4772,5484,12256,0.969,551
2022-05-01T09:03:09,42.805,6.029,CST-1368DR,4772,5483,12254,0.970,551
2022-05-01T09:06:11,42.805,6.029,CST-1368DR,4772,5485,12257,0.969,551
2022-05-01T09:09:12,42.805,6.029,CST-1368DR,4772,5483,12254,0.970,551
2022-05-01T09:12:14,42.805,6.029,CST-1368DR,4772,5486,12260,0.968,551
2022-05-01T09:15:15,42.805,6.029,CST-1368DR,4772,5482,12251,0.971,551
2022-05-01T09:18:17,42.805,6.029,CST-1368DR,4772,5485,12257,0.969,551
2022-05-01T09:21:18,42.805,6.029,CST-1368DR,4772,5485,12258,0.968,551
2022-05-01T09:24:20,42.805,6.029,CST-1368DR,4772,5483,12254,0.970,551
2022-05-01T09:27:22,42.805,6.029,CST-1368DR,4772,5484,12256,0.969,551
2022-05-01T09:30:23,42.805,6.029,CST-1368DR,4772,5480,12247,0.972,551
2022-05-01T09:33:25,42.805,6.029,CST-1368DR,4772,5483,12254,0.970,551
2022-05-01T09:36:26,42.805,6.029,CST-1368DR,4772,5481,12248,0.972,551
2022-05-01T09:39:28,42.805,6.029,CST-1368DR,4772,5483,12252,0.970,551
2022-05-01T09:42:30,42.805,6.029,CST-1368DR,4772,5485,12259,0.968,551
2022-05-01T09:45:31,42.805,6.029,CST-1368DR,4772,5479,12244,0.973,551
2022-05-01T09:48:33,42.805,6.029,CST-1368DR,4772,5484,12255,0.969,551
2022-05-01T09:51:34,42.805,6.029,CST-1368DR,4772,5481,12248,0.972,551
2022-05-01T09:54:36,42.805,6.029,CST-1368DR,4772,5480,12247,0.972,551
2022-05-01T09:57:37,42.805,6.029,CST-1368DR,4772,5482,12252,0.970,551
2022-05-01T10:00:39,42.805,6.029,CST-1368DR,4772,5477,12241,0.974,551
2022-05-01T10:03:41,42.805,6.029,CST-1368DR,4772,5482,12252,0.970,551
2022-05-01T10:06:42,42.805,6.029,CST-1368DR,4772,5482,12250,0.971,551
2022-05-01T10:09:44,42.805,6.029,CST-1368DR,4772,5482,12251,0.971,551
2022-05-01T10:12:45,42.805,6.029,CST-1368DR,4772,5484,12256,0.969,551
2022-05-01T10:15:47,42.805,6.029,CST-1368DR,4772,5480,12246,0.972,551
2022-05-01T10:18:48,42.805,6.029,CST-1368DR,4772,5482,12250,0.971,551
2022-05-01T10:21:50,42.805,6.029,CST-1368DR,4772,5483,12253,0.970,551
2022-05-01T10:24:52,42.805,6.029,CST-1368DR,4772,5494,12279,0.962,551
2022-05-01T10:27:53,42.805,6.029,CST-1368DR,4772,5484,12256,0.969,551
2022-05-01T10:30:55,42.805,6.029,CST-1368DR,4772,5486,12261,0.967,551
2022-05-01T10:33:56,42.805,6.029,CST-1368DR,4772,5481,12250,0.971,551
2022-05-01T10:36:58,42.805,6.029,CST-1368DR,4772,5484,12256,0.969,551
2022-05-01T10:40:00,42.805,6.029,CST-1368DR,4772,5483,12254,0.970,551
2022-05-01T10:43:01,42.805,6.029,CST-1368DR,4772,5482,12251,0.971,551
2022-05-01T10:46:03,42.805,6.029,CST-1368DR,4772,5484,12255,0.969,551
2022-05-01T10:49:04,42.805,6.029,CST-1368DR,4772,5483,12252,0.970,551
2022-05-01T10:52:06,42.805,6.029,CST-1368DR,4772,5484,12256,0.969,551
2022-05-01T10:55:07,42.805,6.029,CST-1368DR,4771,5286,11815,01.116,551
2022-05-01T10:58:09,42.805,6.029,CST-1368DR,4772,5483,12254,0.970,551
2022-05-01T11:01:11,42.805,6.029,CST-1368DR,4772,5483,12252,0.970,551
2022-05-01T11:04:12,42.805,6.029,CST-1368DR,4772,5484,12255,0.969,551
2022-05-01T11:07:14,42.805,6.029,CST-1368DR,4772,5483,12253,0.970,551
2022-05-01T11:10:15,42.805,6.029,CST-1368DR,4772,5483,12253,0.970,551
2022-05-01T11:13:17,42.805,6.029,CST-1368DR,4772,5485,12258,0.968,551
2022-05-01T11:16:18,42.805,6.029,CST-1368DR,4772,5484,12256,0.969,551
2022-05-01T11:19:20,42.805,6.029,CST-1368DR,4772,5483,12254,0.970,551
2022-05-01T11:22:22,42.805,6.029,CST-1368DR,4772,5483,12254,0.970,551
2022-05-01T11:25:23,42.805,6.029,CST-1368DR,4772,5483,12254,0.970,551
2022-05-01T11:28:25,42.805,6.029,CST-1368DR,4772,5479,12244,0.973,551
2022-05-01T11:31:26,42.805,6.029,CST-1368DR,4772,5482,12251,0.971,551
2022-05-01T11:34:28,42.805,6.029,CST-1368DR,4772,5483,12254,0.970,551
2022-05-01T11:37:30,42.805,6.029,CST-1368DR,4772,5483,12254,0.970,551
2022-05-01T11:40:31,42.805,6.029,CST-1368DR,4772,5483,12253,0.970,551
2022-05-01T11:43:33,42.805,6.029,CST-1368DR,4772,5485,12257,0.969,551
2022-05-01T11:46:34,42.805,6.029,CST-1368DR,4772,5482,12252,0.970,551
2022-05-01T11:49:36,42.805,6.029,CST-1368DR,4772,5483,12254,0.970,551
2022-05-01T11:52:37,42.805,6.029,CST-1368DR,4772,5484,12255,0.969,551
2022-05-01T11:55:39,42.805,6.029,CST-1368DR,4772,5482,12252,0.970,551
2022-05-01T11:58:41,42.805,6.029,CST-1368DR,4772,5487,12262,0.967,551
2022-05-01T12:01:42,42.805,6.029,CST-1368DR,4772,5484,12256,0.969,551
2022-05-01T12:04:44,42.805,6.029,CST-1368DR,4772,5489,12267,0.966,551
2022-05-01T12:07:45,42.805,6.029,CST-1368DR,4772,5485,12259,0.968,551
2022-05-01T12:10:47,42.805,6.029,CST-1368DR,4772,5485,12258,0.968,551
2022-05-01T12:13:48,42.805,6.029,CST-1368DR,4772,5484,12256,0.969,551
2022-05-01T12:16:50,42.805,6.029,CST-1368DR,4772,5485,12257,0.969,551
2022-05-01T12:19:52,42.805,6.029,CST-1368DR,4772,5482,12251,0.971,551
2022-05-01T12:22:53,42.805,6.029,CST-1368DR,4772,5487,12261,0.967,551
2022-05-01T12:25:55,42.805,6.029,CST-1368DR,4772,5484,12256,0.969,551
2022-05-01T12:28:56,42.805,6.029,CST-1368DR,4772,5482,12251,0.971,551
2022-05-01T12:31:58,42.805,6.029,CST-1368DR,4772,5486,12260,0.968,551
2022-05-01T12:35:00,42.805,6.029,CST-1368DR,4772,5489,12266,0.966,551
2022-05-01T12:38:01,42.805,6.029,CST-1368DR,4772,5489,12268,0.965,551
2022-05-01T12:41:03,42.805,6.029,CST-1368DR,4772,5489,12267,0.966,551
2022-05-01T12:44:04,42.805,6.029,CST-1368DR,4772,5487,12262,0.967,551
2022-05-01T12:47:06,42.805,6.029,CST-1368DR,4772,5485,12259,0.968,551
2022-05-01T12:50:07,42.805,6.029,CST-1368DR,4772,5486,12261,0.967,551
2022-05-01T12:53:09,42.805,6.029,CST-1368DR,4772,5485,12258,0.968,551
2022-05-01T12:56:11,42.805,6.029,CST-1368DR,4772,5485,12257,0.969,551
2022-05-01T12:59:12,42.805,6.029,CST-1368DR,4772,5482,12251,0.971,551
2022-05-01T13:02:14,42.805,6.029,CST-1368DR,4772,5499,12288,0.959,551
2022-05-01T13:05:15,42.805,6.029,CST-1368DR,4772,5490,12268,0.965,551
2022-05-01T13:08:17,42.805,6.029,CST-1368DR,4772,5489,12267,0.966,551
2022-05-01T13:11:18,42.805,6.029,CST-1368DR,4772,5486,12260,0.968,551
2022-05-01T13:14:20,42.805,6.029,CST-1368DR,4772,5488,12265,0.966,551
2022-05-01T13:17:22,42.805,6.029,CST-1368DR,4772,5486,12261,0.967,551
2022-05-01T13:20:23,42.805,6.029,CST-1368DR,4772,5485,12258,0.968,551
2022-05-01T13:23:25,42.805,6.029,CST-1368DR,4772,5485,12258,0.968,551
2022-05-01T13:26:26,42.805,6.029,CST-1368DR,4772,5486,12259,0.968,551
2022-05-01T13:29:28,42.805,6.029,CST-1368DR,4772,5486,12261,0.967,551
2022-05-01T13:32:30,42.805,6.029,CST-1368DR,4772,5484,12256,0.969,551
2022-05-01T13:35:31,42.805,6.029,CST-1368DR,4772,5483,12252,0.970,551
2022-05-01T13:38:33,42.805,6.029,CST-1368DR,4772,5487,12263,0.967,551
2022-05-01T13:41:34,42.805,6.029,CST-1368DR,4772,5485,12257,0.969,551
2022-05-01T13:44:36,42.805,6.029,CST-1368DR,4772,5485,12258,0.968,551
2022-05-01T13:47:37,42.805,6.029,CST-1368DR,4772,5484,12256,0.969,551
2022-05-01T13:50:39,42.805,6.029,CST-1368DR,4772,5483,12254,0.970,551
2022-05-01T13:53:41,42.805,6.029,CST-1368DR,4772,5487,12262,0.967,551
2022-05-01T13:56:42,42.805,6.029,CST-1368DR,4772,5483,12254,0.970,551
2022-05-01T13:59:44,42.805,6.029,CST-1368DR,4772,5485,12258,0.968,551
2022-05-01T14:02:45,42.805,6.029,CST-1368DR,4772,5482,12251,0.971,551
2022-05-01T14:05:47,42.805,6.029,CST-1368DR,4772,5484,12256,0.969,551
2022-05-01T14:08:49,42.805,6.029,CST-1368DR,4772,5483,12254,0.970,551
2022-05-01T14:11:50,42.805,6.029,CST-1368DR,4772,5475,12236,0.976,551
2022-05-01T14:14:52,42.805,6.029,CST-1368DR,4772,5483,12252,0.970,551
2022-05-01T14:17:53,42.805,6.029,CST-1368DR,4772,5484,12256,0.969,551
2022-05-01T14:20:55,42.805,6.029,CST-1368DR,4772,5482,12251,0.971,551
2022-05-01T14:23:56,42.805,6.029,CST-1368DR,4772,5488,12264,0.967,551
2022-05-01T14:26:58,42.805,6.029,CST-1368DR,4772,5485,12258,0.968,551
2022-05-01T14:30:00,42.805,6.029,CST-1368DR,4772,5486,12260,0.968,551
2022-05-01T14:33:01,42.805,6.029,CST-1368DR,4772,5487,12263,0.967,551
2022-05-01T14:36:03,42.805,6.029,CST-1368DR,4772,5485,12259,0.968,551
2022-05-01T14:39:04,42.805,6.029,CST-1368DR,4772,5486,12259,0.968,551
2022-05-01T14:42:06,42.805,6.029,CST-1368DR,4772,5485,12258,0.968,551
2022-05-01T14:45:07,42.805,6.029,CST-1368DR,4772,5491,12272,0.964,551
2022-05-01T14:48:09,42.805,6.029,CST-1368DR,4772,5488,12264,0.967,551
2022-05-01T14:51:11,42.805,6.029,CST-1368DR,4772,5489,12266,0.966,551
2022-05-01T14:54:12,42.805,6.029,CST-1368DR,4772,5491,12271,0.964,551
2022-05-01T14:57:14,42.805,6.029,CST-1368DR,4772,5498,12287,0.959,551
2022-05-01T15:00:15,42.805,6.029,CST-1368DR,4772,5493,12275,0.963,551
2022-05-01T15:03:17,42.805,6.029,CST-1368DR,4772,5496,12283,0.960,551
2022-05-01T15:06:19,42.805,6.029,CST-1368DR,4772,5491,12271,0.964,551
2022-05-01T15:09:20,42.805,6.029,CST-1368DR,4772,5492,12274,0.963,551
2022-05-01T15:12:22,42.805,6.029,CST-1368DR,4772,5491,12272,0.964,551
2022-05-01T15:15:23,42.805,6.029,CST-1368DR,4772,5491,12271,0.964,551
2022-05-01T15:18:25,42.805,6.029,CST-1368DR,4772,5491,12272,0.964,551
2022-05-01T15:21:26,42.805,6.029,CST-1368DR,4772,5490,12269,0.965,551
2022-05-01T15:24:28,42.805,6.029,CST-1368DR,4772,5489,12268,0.965,551
2022-05-01T15:27:30,42.805,6.029,CST-1368DR,4772,5486,12260,0.968,551
2022-05-01T15:30:31,42.805,6.029,CST-1368DR,4772,5489,12268,0.965,551
2022-05-01T15:33:33,42.805,6.029,CST-1368DR,4772,5488,12265,0.966,551
2022-05-01T15:36:34,42.805,6.029,CST-1368DR,4772,5486,12260,0.968,550
2022-05-01T15:39:36,42.805,6.029,CST-1368DR,4772,5490,12268,0.965,551
2022-05-01T15:42:38,42.805,6.029,CST-1368DR,4772,5487,12262,0.967,551
2022-05-01T15:45:39,42.805,6.029,CST-1368DR,4772,5489,12267,0.966,551
2022-05-01T15:48:41,42.805,6.029,CST-1368DR,4772,5492,12273,0.964,551
2022-05-01T15:51:42,42.805,6.029,CST-1368DR,4772,5488,12265,0.966,551
2022-05-01T15:54:44,42.805,6.029,CST-1368DR,4772,5492,12273,0.964,551
2022-05-01T15:57:45,42.805,6.029,CST-1368DR,4772,5489,12266,0.966,551
2022-05-01T16:00:47,42.805,6.029,CST-1368DR,4772,5489,12267,0.966,551
2022-05-01T16:03:49,42.805,6.029,CST-1368DR,4772,5485,12257,0.969,551
2022-05-01T16:06:50,42.805,6.029,CST-1368DR,4772,5491,12271,0.964,551
2022-05-01T16:09:52,42.805,6.029,CST-1368DR,4772,5483,12254,0.970,551
2022-05-01T16:12:53,42.805,6.029,CST-1368DR,4772,5482,12252,0.970,551
2022-05-01T16:15:55,42.805,6.029,CST-1368DR,4772,5490,12269,0.965,551
2022-05-01T16:18:56,42.805,6.029,CST-1368DR,4772,5489,12266,0.966,551
2022-05-01T16:21:58,42.805,6.029,CST-1368DR,4772,5490,12268,0.965,551
2022-05-01T16:25:00,42.805,6.029,CST-1368DR,4772,5489,12266,0.966,551
2022-05-01T16:28:01,42.805,6.029,CST-1368DR,4772,5489,12266,0.966,551
2022-05-01T16:31:03,42.805,6.029,CST-1368DR,4772,5484,12256,0.969,551
2022-05-01T16:34:04,42.805,6.029,CST-1368DR,4772,5488,12265,0.966,551
2022-05-01T16:37:06,42.805,6.029,CST-1368DR,4772,5489,12266,0.966,551
2022-05-01T16:40:08,42.805,6.029,CST-1368DR,4772,5488,12265,0.966,551
2022-05-01T16:43:09,42.805,6.029,CST-1368DR,4772,5487,12261,0.967,551
2022-05-01T16:46:11,42.805,6.029,CST-1368DR,4772,5489,12267,0.966,551
2022-05-01T16:49:12,42.805,6.029,CST-1368DR,4772,5490,12270,0.965,551
2022-05-01T16:52:14,42.805,6.029,CST-1368DR,4772,5488,12265,0.966,551